Home > Weather > Bloemfontein > Past weeks

Flag for South Africa Past Weather in Bloemfontein, South Africa — Yesterday and Last 2 Weeks

Now
54 °F

Passing clouds.


Feels Like: 53 °F
Forecast: 31 / 54 °F
Wind: 5 mph from Southwest

Location: Bloemfontein Airport

Current Time: Jul 23, 2016 at 5:10:30 PM

Latest Report: Jul 23, 2016 at 4:00 PM


Visibility: N/A

Pressure: 30.12 "Hg (25.48 "Hg at 1397m altitude)

Humidity: 26%

Dew Point: 19 °F

Location of BloemfonteinLocation

Past Weather in Bloemfontein — Graph

°F

Bloemfontein Temperature Yesterday

Maximum temperature yesterday: 64 °F (at 2:00 PM)
Minimum temperature yesterday: 30 °F (at 7:00 AM)
Average temperature yesterday: 47 °F

High & Low Weather Summary for the Past Weeks

 TemperatureHumidityPressure
High72 °F (Jul 20, 2:00 PM)87% (Jul 18, 7:00 AM)30.57 "Hg (Jul 18, 7:00 AM)
Low28 °F (Jul 23, 7:00 AM)11% (Jul 21, 5:00 PM)30.09 "Hg (Jul 22, 3:00 PM)
Average48 °F49%30.35 "Hg
* Reported Jul 8 4:00 PM — Jul 23 4:00 PM, Bloemfontein, Weather by CustomWeather, © 2016

Note: Actual official high and low records may vary slightly from our data, if they occured in-between our weather recording intervals... More about our weather records

Advertising

Bloemfontein Weather History for the Previous 24 Hours

Scroll right to see more
 ConditionsComfort  
Time TempWeatherWind HumidityBarometerVisibility
4:00 PM
Sat, Jul 23
54 °FPassing clouds.5 mph26%30.12 "HgN/A
3:00 PM54 °FPassing clouds.6 mph30%30.12 "HgN/A
2:00 PM55 °FSunny.7 mph31%30.15 "Hg10 mi
1:00 PM54 °FSunny.5 mph35%30.15 "Hg10 mi
12:00 PM52 °FPassing clouds.6 mph38%30.18 "HgN/A
11:00 AM52 °FSunny.7 mph38%30.21 "Hg10 mi
10:00 AM46 °FPassing clouds.5 mph50%30.21 "HgN/A
9:00 AM41 °FSunny.1 mph61%30.21 "Hg10 mi
8:00 AM36 °FSunny.No wind65%30.18 "Hg10 mi
7:00 AM28 °FSunny.2 mph80%30.15 "Hg10 mi
6:00 AM30 °FClear.2 mph80%30.15 "Hg10 mi
5:00 AM32 °FClear.2 mph75%30.12 "Hg10 mi
4:00 AM32 °FChilly.2 mph75%30.12 "HgN/A
3:00 AM34 °FChilly.3 mph70%30.15 "HgN/A
2:00 AM34 °FChilly.5 mph70%30.15 "HgN/A
1:00 AM36 °FChilly.5 mph65%30.15 "HgN/A
12:00 AM37 °FChilly.3 mph65%30.15 "HgN/A
11:00 PM
Fri, Jul 22
43 °FQuite cool.7 mph57%30.15 "HgN/A
10:00 PM45 °FQuite cool.6 mph53%30.15 "HgN/A
9:00 PM46 °FCool.7 mph50%30.12 "HgN/A
8:00 PM50 °FClear.7 mph47%30.12 "Hg10 mi
7:00 PM54 °FClear.3 mph38%30.12 "Hg10 mi
6:00 PM57 °FClear.8 mph33%30.12 "Hg10 mi
5:00 PM61 °FClear.14 mph29%30.09 "Hg10 mi
Weather by CustomWeather, © 2016

See weather overviewHow to use our weather pages